Time,TemperatureF,DewpointF,PressureIn,WindDirection,WindDirectionDegrees,WindSpeedMPH,WindSpeedGustMPH,Humidity,HourlyPrecipIn,Conditions,Clouds,dailyrainin,SoftwareType,DateUTC
2013-11-02 00:03:00,52.5,25.0,-100.00,WSW,247,2.0,3.0,34,0.00,,,0.00,meteohub,2013-11-02 07:03:00,
2013-11-02 00:08:00,52.5,22.8,-100.00,SSW,207,3.0,4.0,31,0.00,,,0.00,meteohub,2013-11-02 07:08:00,
2013-11-02 00:13:00,52.5,23.5,-100.00,WSW,252,1.0,4.0,32,0.00,,,0.00,meteohub,2013-11-02 07:13:00,
2013-11-02 00:18:00,52.2,22.5,-100.00,West,271,3.0,4.0,31,0.00,,,0.00,meteohub,2013-11-02 07:18:00,
2013-11-02 00:23:00,51.4,21.0,-100.00,West,273,4.0,4.0,30,0.00,,,0.00,meteohub,2013-11-02 07:23:00,
2013-11-02 00:28:00,51.3,21.6,-100.00,West,266,4.0,4.0,31,0.00,,,0.00,meteohub,2013-11-02 07:28:00,
2013-11-02 00:33:00,51.1,21.6,-100.00,WSW,252,4.0,4.0,31,0.00,,,0.00,meteohub,2013-11-02 07:33:00,
2013-11-02 00:38:00,51.1,21.6,-100.00,WSW,252,3.0,5.0,31,0.00,,,0.00,meteohub,2013-11-02 07:38:00,
2013-11-02 00:43:00,51.1,22.3,-100.00,SW,235,1.0,5.0,32,0.00,,,0.00,meteohub,2013-11-02 07:43:00,
2013-11-02 00:48:00,51.1,22.3,-100.00,South,190,2.0,5.0,32,0.00,,,0.00,meteohub,2013-11-02 07:48:00,
2013-11-02 00:53:00,50.9,22.8,-100.00,SSE,150,2.0,4.0,33,0.00,,,0.00,meteohub,2013-11-02 07:53:00,
2013-11-02 00:58:00,50.7,22.6,-100.00,SSE,149,0.0,4.0,33,0.00,,,0.00,meteohub,2013-11-02 07:58:00,
2013-11-02 01:03:00,50.7,24.8,-100.00,SSE,149,0.0,4.0,36,0.00,,,0.00,meteohub,2013-11-02 08:03:00,
2013-11-02 01:08:00,50.5,23.9,-100.00,SSE,149,0.0,4.0,35,0.00,,,0.00,meteohub,2013-11-02 08:08:00,
2013-11-02 01:13:00,50.5,23.9,-100.00,SSE,149,0.0,3.0,35,0.00,,,0.00,meteohub,2013-11-02 08:13:00,
2013-11-02 01:18:00,50.5,23.9,-100.00,SSE,149,0.0,3.0,35,0.00,,,0.00,meteohub,2013-11-02 08:18:00,
2013-11-02 01:23:00,50.5,23.9,-100.00,SSE,149,1.0,1.0,35,0.00,,,0.00,meteohub,2013-11-02 08:23:00,
2013-11-02 01:28:00,50.5,23.9,-100.00,SSE,149,0.0,2.0,35,0.00,,,0.00,meteohub,2013-11-02 08:28:00,
2013-11-02 01:33:00,50.5,24.6,-100.00,SSE,150,1.0,2.0,36,0.00,,,0.00,meteohub,2013-11-02 08:33:00,
2013-11-02 01:38:00,50.4,23.7,-100.00,SSE,150,0.0,2.0,35,0.00,,,0.00,meteohub,2013-11-02 08:38:00,
2013-11-02 01:43:00,50.4,24.4,-100.00,SSE,150,0.0,2.0,36,0.00,,,0.00,meteohub,2013-11-02 08:43:00,
2013-11-02 01:48:00,50.4,24.4,-100.00,SSE,150,0.0,2.0,36,0.00,,,0.00,meteohub,2013-11-02 08:48:00,
2013-11-02 01:53:00,50.2,25.0,-100.00,SSE,150,1.0,1.0,37,0.00,,,0.00,meteohub,2013-11-02 08:53:00,
2013-11-02 01:58:00,50.4,25.0,-100.00,SSE,150,1.0,1.0,37,0.00,,,0.00,meteohub,2013-11-02 08:58:00,
2013-11-02 02:03:00,50.4,24.4,-100.00,SSE,150,2.0,2.0,36,0.00,,,0.00,meteohub,2013-11-02 09:03:00,
2013-11-02 02:08:00,50.5,25.2,-100.00,SSE,150,2.0,3.0,37,0.00,,,0.00,meteohub,2013-11-02 09:08:00,
2013-11-02 02:13:00,50.4,25.0,-100.00,SSW,194,3.0,3.0,37,0.00,,,0.00,meteohub,2013-11-02 09:13:00,
2013-11-02 02:18:00,50.4,25.0,-100.00,South,188,0.0,4.0,37,0.00,,,0.00,meteohub,2013-11-02 09:18:00,
2013-11-02 02:23:00,50.4,24.4,-100.00,SSW,200,0.0,4.0,36,0.00,,,0.00,meteohub,2013-11-02 09:23:00,
2013-11-02 02:28:00,49.8,23.9,-100.00,SSW,209,1.0,4.0,36,0.00,,,0.00,meteohub,2013-11-02 09:28:00,
2013-11-02 02:33:00,49.6,23.7,-100.00,SW,230,1.0,3.0,36,0.00,,,0.00,meteohub,2013-11-02 09:33:00,
2013-11-02 02:38:00,49.3,23.5,-100.00,West,266,1.0,2.0,36,0.00,,,0.00,meteohub,2013-11-02 09:38:00,
2013-11-02 02:43:00,49.3,23.5,-100.00,West,274,2.0,3.0,36,0.00,,,0.00,meteohub,2013-11-02 09:43:00,
2013-11-02 02:48:00,49.1,23.4,-100.00,West,274,0.0,3.0,36,0.00,,,0.00,meteohub,2013-11-02 09:48:00,
2013-11-02 02:53:00,48.9,23.2,-100.00,WNW,288,2.0,3.0,36,0.00,,,0.00,meteohub,2013-11-02 09:53:00,
2013-11-02 02:58:00,48.9,23.2,-100.00,WNW,293,2.0,3.0,36,0.00,,,0.00,meteohub,2013-11-02 09:58:00,
2013-11-02 03:03:00,48.9,23.7,-100.00,WNW,299,2.0,3.0,37,0.00,,,0.00,meteohub,2013-11-02 10:03:00,
2013-11-02 03:08:00,48.7,23.5,-100.00,WNW,299,1.0,3.0,37,0.00,,,0.00,meteohub,2013-11-02 10:08:00,
2013-11-02 03:13:00,48.7,24.3,-100.00,WNW,299,0.0,3.0,38,0.00,,,0.00,meteohub,2013-11-02 10:13:00,
2013-11-02 03:18:00,48.6,24.1,-100.00,WNW,299,0.0,3.0,38,0.00,,,0.00,meteohub,2013-11-02 10:18:00,
2013-11-02 03:23:00,48.4,24.6,-100.00,WNW,299,0.0,2.0,39,0.00,,,0.00,meteohub,2013-11-02 10:23:00,
2013-11-02 03:28:00,48.4,24.6,-100.00,WNW,299,0.0,1.0,39,0.00,,,0.00,meteohub,2013-11-02 10:28:00,
2013-11-02 03:33:00,48.2,24.4,-100.00,WNW,299,0.0,1.0,39,0.00,,,0.00,meteohub,2013-11-02 10:33:00,
2013-11-02 03:38:00,48.0,24.8,-100.00,WNW,299,0.0,1.0,40,0.00,,,0.00,meteohub,2013-11-02 10:38:00,
2013-11-02 03:43:00,47.8,24.6,-100.00,WNW,299,0.0,1.0,40,0.00,,,0.00,meteohub,2013-11-02 10:43:00,
2013-11-02 03:48:00,47.7,25.7,-100.00,WNW,299,0.0,0.0,42,0.00,,,0.00,meteohub,2013-11-02 10:48:00,
2013-11-02 03:53:00,47.7,26.2,-100.00,WNW,299,0.0,0.0,43,0.00,,,0.00,meteohub,2013-11-02 10:53:00,
2013-11-02 03:58:00,47.3,25.3,-100.00,WNW,294,2.0,0.0,42,0.00,,,0.00,meteohub,2013-11-02 10:58:00,
2013-11-02 04:03:00,47.1,24.6,-100.00,SSW,207,3.0,4.0,41,0.00,,,0.00,meteohub,2013-11-02 11:03:00,
2013-11-02 04:08:00,46.9,25.0,-100.00,SSW,204,3.0,5.0,42,0.00,,,0.00,meteohub,2013-11-02 11:08:00,
2013-11-02 04:13:00,46.8,24.3,-100.00,SW,215,2.0,5.0,41,0.00,,,0.00,meteohub,2013-11-02 11:13:00,
2013-11-02 04:18:00,46.9,24.4,-100.00,SSW,198,4.0,5.0,41,0.00,,,0.00,meteohub,2013-11-02 11:18:00,
2013-11-02 04:23:00,46.9,23.9,-100.00,SSW,192,0.0,5.0,40,0.00,,,0.00,meteohub,2013-11-02 11:23:00,
2013-11-02 04:28:00,46.6,24.1,-100.00,SW,231,4.0,6.0,41,0.00,,,0.00,meteohub,2013-11-02 11:28:00,
2013-11-02 04:33:00,46.6,24.1,-100.00,SW,219,3.0,6.0,41,0.00,,,0.00,meteohub,2013-11-02 11:33:00,
2013-11-02 04:38:00,46.6,24.1,-100.00,SW,215,4.0,6.0,41,0.00,,,0.00,meteohub,2013-11-02 11:38:00,
2013-11-02 04:43:00,46.6,24.1,-100.00,SSW,211,2.0,6.0,41,0.00,,,0.00,meteohub,2013-11-02 11:43:00,
2013-11-02 04:48:00,46.6,24.1,-100.00,SSW,192,3.0,4.0,41,0.00,,,0.00,meteohub,2013-11-02 11:48:00,
2013-11-02 04:53:00,46.2,23.9,-100.00,SSE,153,2.0,4.0,41,0.00,,,0.00,meteohub,2013-11-02 11:53:00,
2013-11-02 04:58:00,46.2,23.9,-100.00,SE,143,3.0,4.0,41,0.00,,,0.00,meteohub,2013-11-02 11:58:00,
2013-11-02 05:03:00,46.0,24.3,-100.00,SE,138,3.0,4.0,42,0.00,,,0.00,meteohub,2013-11-02 12:03:00,
2013-11-02 05:08:00,45.9,24.1,-100.00,SE,130,2.0,4.0,42,0.00,,,0.00,meteohub,2013-11-02 12:08:00,
2013-11-02 05:13:00,45.9,24.1,-100.00,SE,130,0.0,4.0,42,0.00,,,0.00,meteohub,2013-11-02 12:13:00,
2013-11-02 05:18:00,45.7,24.4,-100.00,SE,130,0.0,4.0,43,0.00,,,0.00,meteohub,2013-11-02 12:18:00,
2013-11-02 05:23:00,45.9,24.6,-100.00,SE,130,0.0,3.0,43,0.00,,,0.00,meteohub,2013-11-02 12:23:00,
2013-11-02 05:28:00,46.0,24.3,-100.00,SE,128,0.0,2.0,42,0.00,,,0.00,meteohub,2013-11-02 12:28:00,
2013-11-02 05:33:00,46.0,24.3,-100.00,SE,128,0.0,1.0,42,0.00,,,0.00,meteohub,2013-11-02 12:33:00,
2013-11-02 05:38:00,46.0,24.3,-100.00,ESE,123,0.0,1.0,42,0.00,,,0.00,meteohub,2013-11-02 12:38:00,
2013-11-02 05:43:00,46.2,26.1,-100.00,East,100,1.0,1.0,45,0.00,,,0.00,meteohub,2013-11-02 12:43:00,
2013-11-02 05:48:00,46.2,25.0,-100.00,East,98,0.0,2.0,43,0.00,,,0.00,meteohub,2013-11-02 12:48:00,
2013-11-02 05:53:00,46.2,24.4,-100.00,East,98,0.0,2.0,42,0.00,,,0.00,meteohub,2013-11-02 12:53:00,
2013-11-02 05:58:00,46.2,24.4,-100.00,East,94,1.0,2.0,42,0.00,,,0.00,meteohub,2013-11-02 12:58:00,
2013-11-02 06:03:00,46.2,24.4,-100.00,East,83,2.0,2.0,42,0.00,,,0.00,meteohub,2013-11-02 13:03:00,
2013-11-02 06:08:00,46.0,24.3,-100.00,NNW,343,2.0,3.0,42,0.00,,,0.00,meteohub,2013-11-02 13:08:00,
2013-11-02 06:13:00,46.0,24.8,-100.00,NNW,343,0.0,4.0,43,0.00,,,0.00,meteohub,2013-11-02 13:13:00,
2013-11-02 06:18:00,45.9,24.6,-100.00,NNW,343,0.0,4.0,43,0.00,,,0.00,meteohub,2013-11-02 13:18:00,
2013-11-02 06:23:00,45.9,24.6,-100.00,NNW,343,0.0,4.0,43,0.00,,,0.00,meteohub,2013-11-02 13:23:00,
2013-11-02 06:28:00,45.7,24.4,-100.00,NNW,343,0.0,1.0,43,0.00,,,0.00,meteohub,2013-11-02 13:28:00,
2013-11-02 06:33:00,45.3,24.6,-100.00,NNW,343,0.0,0.0,44,0.00,,,0.00,meteohub,2013-11-02 13:33:00,
2013-11-02 06:38:00,45.3,25.2,-100.00,NNW,343,0.0,0.0,45,0.00,,,0.00,meteohub,2013-11-02 13:38:00,
2013-11-02 06:43:00,45.1,25.0,-100.00,NNW,343,1.0,0.0,45,0.00,,,0.00,meteohub,2013-11-02 13:43:00,
2013-11-02 06:48:00,45.0,25.0,-100.00,NNW,343,1.0,1.0,45,0.00,,,0.00,meteohub,2013-11-02 13:48:00,
2013-11-02 06:53:00,44.8,24.8,-100.00,NNW,343,1.0,1.0,45,0.00,,,0.00,meteohub,2013-11-02 13:53:00,
2013-11-02 06:58:00,44.6,25.2,-100.00,NNW,342,3.0,3.0,46,0.00,,,0.00,meteohub,2013-11-02 13:58:00,
2013-11-02 07:03:00,44.6,25.2,-100.00,NW,325,2.0,3.0,46,0.00,,,0.00,meteohub,2013-11-02 14:03:00,
2013-11-02 07:08:00,44.4,24.4,-100.00,NW,306,2.0,3.0,45,0.00,,,0.00,meteohub,2013-11-02 14:08:00,
2013-11-02 07:13:00,44.6,24.6,-100.00,NW,306,0.0,3.0,45,0.00,,,0.00,meteohub,2013-11-02 14:13:00,
2013-11-02 07:18:00,45.0,24.4,-100.00,NW,306,0.0,3.0,44,0.00,,,0.00,meteohub,2013-11-02 14:18:00,
2013-11-02 07:23:00,45.1,24.4,-100.00,NW,306,0.0,3.0,44,0.00,,,0.00,meteohub,2013-11-02 14:23:00,
2013-11-02 07:28:00,45.1,24.4,-100.00,NW,306,0.0,1.0,44,0.00,,,0.00,meteohub,2013-11-02 14:28:00,
2013-11-02 07:33:00,45.1,24.4,-100.00,WNW,300,0.0,1.0,44,0.00,,,0.00,meteohub,2013-11-02 14:33:00,
2013-11-02 07:38:00,45.5,24.8,-100.00,WNW,300,0.0,1.0,44,0.00,,,0.00,meteohub,2013-11-02 14:38:00,
2013-11-02 07:43:00,45.7,24.4,-100.00,WNW,300,0.0,1.0,43,0.00,,,0.00,meteohub,2013-11-02 14:43:00,
2013-11-02 07:48:00,46.0,24.8,-100.00,WNW,300,0.0,0.0,43,0.00,,,0.00,meteohub,2013-11-02 14:48:00,
2013-11-02 07:53:00,46.2,25.5,-100.00,WNW,300,0.0,0.0,44,0.00,,,0.00,meteohub,2013-11-02 14:53:00,
2013-11-02 07:58:00,46.4,25.7,-100.00,WNW,300,0.0,0.0,44,0.00,,,0.00,meteohub,2013-11-02 14:58:00,
2013-11-02 08:03:00,46.6,25.3,-100.00,WNW,300,0.0,0.0,43,0.00,,,0.00,meteohub,2013-11-02 15:03:00,
2013-11-02 08:08:00,46.8,25.5,-100.00,WNW,300,0.0,0.0,43,0.00,,,0.00,meteohub,2013-11-02 15:08:00,
2013-11-02 08:13:00,46.9,26.2,-100.00,WNW,300,0.0,0.0,44,0.00,,,0.00,meteohub,2013-11-02 15:13:00,
2013-11-02 08:18:00,47.3,25.9,-100.00,WNW,300,0.0,0.0,43,0.00,,,0.00,meteohub,2013-11-02 15:18:00,
2013-11-02 08:23:00,47.7,26.2,-100.00,WNW,294,0.0,0.0,43,0.00,,,0.00,meteohub,2013-11-02 15:23:00,
2013-11-02 08:28:00,48.0,26.1,-100.00,WNW,294,0.0,0.0,42,0.00,,,0.00,meteohub,2013-11-02 15:28:00,
2013-11-02 08:33:00,48.2,25.5,-100.00,WNW,294,0.0,0.0,41,0.00,,,0.00,meteohub,2013-11-02 15:33:00,
2013-11-02 08:38:00,48.6,25.9,-100.00,WNW,294,0.0,0.0,41,0.00,,,0.00,meteohub,2013-11-02 15:38:00,
2013-11-02 08:43:00,49.5,26.8,-100.00,WNW,294,0.0,0.0,41,0.00,,,0.00,meteohub,2013-11-02 15:43:00,
2013-11-02 08:48:00,49.6,26.2,-100.00,WNW,294,0.0,0.0,40,0.00,,,0.00,meteohub,2013-11-02 15:48:00,
2013-11-02 08:53:00,49.8,25.9,-100.00,WNW,294,0.0,0.0,39,0.00,,,0.00,meteohub,2013-11-02 15:53:00,
2013-11-02 08:58:00,50.2,25.5,-100.00,WNW,294,0.0,1.0,38,0.00,,,0.00,meteohub,2013-11-02 15:58:00,
2013-11-02 09:03:00,50.9,26.2,-100.00,WNW,294,0.0,1.0,38,0.00,,,0.00,meteohub,2013-11-02 16:03:00,
2013-11-02 09:08:00,51.3,26.6,-100.00,WNW,294,0.0,1.0,38,0.00,,,0.00,meteohub,2013-11-02 16:08:00,
2013-11-02 09:13:00,51.6,26.8,-100.00,WNW,294,3.0,3.0,38,0.00,,,0.00,meteohub,2013-11-02 16:13:00,
2013-11-02 09:18:00,51.8,26.4,-100.00,WNW,294,0.0,3.0,37,0.00,,,0.00,meteohub,2013-11-02 16:18:00,
2013-11-02 09:23:00,52.3,26.8,-100.00,WNW,294,2.0,3.0,37,0.00,,,0.00,meteohub,2013-11-02 16:23:00,
2013-11-02 09:28:00,52.5,26.2,-100.00,West,280,1.0,3.0,36,0.00,,,0.00,meteohub,2013-11-02 16:28:00,
2013-11-02 09:33:00,53.1,26.1,-100.00,West,280,0.0,3.0,35,0.00,,,0.00,meteohub,2013-11-02 16:33:00,
2013-11-02 09:38:00,53.4,26.4,-100.00,West,280,0.0,3.0,35,0.00,,,0.00,meteohub,2013-11-02 16:38:00,
2013-11-02 09:43:00,54.0,26.2,-100.00,West,277,0.0,3.0,34,0.00,,,0.00,meteohub,2013-11-02 16:43:00,
2013-11-02 09:48:00,54.7,26.1,-100.00,West,277,0.0,3.0,33,0.00,,,0.00,meteohub,2013-11-02 16:48:00,
2013-11-02 09:53:00,55.2,26.6,-100.00,West,277,0.0,2.0,33,0.00,,,0.00,meteohub,2013-11-02 16:53:00,
2013-11-02 09:58:00,55.9,25.7,-100.00,West,261,5.0,5.0,31,0.00,,,0.00,meteohub,2013-11-02 16:58:00,
2013-11-02 10:03:00,56.8,25.0,-100.00,West,280,3.0,5.0,29,0.00,,,0.00,meteohub,2013-11-02 17:03:00,
2013-11-02 10:08:00,57.4,24.6,-100.00,West,281,3.0,6.0,28,0.00,,,0.00,meteohub,2013-11-02 17:08:00,
2013-11-02 10:13:00,57.7,24.8,-100.00,WNW,293,1.0,6.0,28,0.00,,,0.00,meteohub,2013-11-02 17:13:00,
2013-11-02 10:18:00,58.1,25.2,-100.00,WSW,253,2.0,6.0,28,0.00,,,0.00,meteohub,2013-11-02 17:18:00,
2013-11-02 10:23:00,58.6,25.7,-100.00,West,279,5.0,6.0,28,0.00,,,0.00,meteohub,2013-11-02 17:23:00,
2013-11-02 10:28:00,59.2,24.3,-100.00,WNW,302,2.0,5.0,26,0.00,,,0.00,meteohub,2013-11-02 17:28:00,
2013-11-02 10:33:00,60.1,25.2,-100.00,NNW,346,2.0,5.0,26,0.00,,,0.00,meteohub,2013-11-02 17:33:00,
2013-11-02 10:38:00,60.3,25.2,-100.00,NW,312,0.0,5.0,26,0.00,,,0.00,meteohub,2013-11-02 17:38:00,
2013-11-02 10:43:00,60.6,24.6,-100.00,NW,312,3.0,5.0,25,0.00,,,0.00,meteohub,2013-11-02 17:43:00,
2013-11-02 10:48:00,61.2,26.1,-100.00,WNW,284,3.0,5.0,26,0.00,,,0.00,meteohub,2013-11-02 17:48:00,
2013-11-02 10:53:00,61.5,25.3,-100.00,NW,315,2.0,5.0,25,0.00,,,0.00,meteohub,2013-11-02 17:53:00,
2013-11-02 10:58:00,62.2,26.1,-100.00,NW,313,0.0,5.0,25,0.00,,,0.00,meteohub,2013-11-02 17:58:00,
2013-11-02 11:03:00,62.4,26.1,-100.00,NNW,334,0.0,5.0,25,0.00,,,0.00,meteohub,2013-11-02 18:03:00,
2013-11-02 11:08:00,62.8,26.4,-100.00,North,349,2.0,5.0,25,0.00,,,0.00,meteohub,2013-11-02 18:08:00,
2013-11-02 11:13:00,63.0,25.5,-100.00,NNW,348,2.0,5.0,24,0.00,,,0.00,meteohub,2013-11-02 18:13:00,
2013-11-02 11:18:00,63.3,25.9,-100.00,NNW,341,3.0,5.0,24,0.00,,,0.00,meteohub,2013-11-02 18:18:00,
2013-11-02 11:23:00,63.7,25.2,-100.00,NNW,334,1.0,3.0,23,0.00,,,0.00,meteohub,2013-11-02 18:23:00,
2013-11-02 11:28:00,64.0,26.6,-100.00,NW,315,2.0,5.0,24,0.00,,,0.00,meteohub,2013-11-02 18:28:00,
2013-11-02 11:33:00,64.9,26.2,-100.00,NW,307,3.0,5.0,23,0.00,,,0.00,meteohub,2013-11-02 18:33:00,
2013-11-02 11:38:00,65.5,25.7,-100.00,NNW,334,2.0,5.0,22,0.00,,,0.00,meteohub,2013-11-02 18:38:00,
2013-11-02 11:43:00,65.8,25.9,-100.00,NNW,340,0.0,5.0,22,0.00,,,0.00,meteohub,2013-11-02 18:43:00,
2013-11-02 11:48:00,66.2,26.2,-100.00,NW,323,3.0,5.0,22,0.00,,,0.00,meteohub,2013-11-02 18:48:00,
2013-11-02 11:53:00,66.4,25.3,-100.00,NW,308,3.0,5.0,21,0.00,,,0.00,meteohub,2013-11-02 18:53:00,
2013-11-02 11:58:00,66.6,25.3,-100.00,NW,311,3.0,5.0,21,0.00,,,0.00,meteohub,2013-11-02 18:58:00,
2013-11-02 12:03:00,66.7,25.5,-100.00,NW,311,2.0,5.0,21,0.00,,,0.00,meteohub,2013-11-02 19:03:00,
2013-11-02 12:08:00,67.1,25.9,-100.00,NW,325,0.0,5.0,21,0.00,,,0.00,meteohub,2013-11-02 19:08:00,
2013-11-02 12:13:00,67.5,26.2,-100.00,North,350,2.0,5.0,21,0.00,,,0.00,meteohub,2013-11-02 19:13:00,
2013-11-02 12:18:00,67.6,26.2,-100.00,NE,54,3.0,5.0,21,0.00,,,0.00,meteohub,2013-11-02 19:18:00,
2013-11-02 12:23:00,68.4,25.7,-100.00,NE,51,2.0,5.0,20,0.00,,,0.00,meteohub,2013-11-02 19:23:00,
2013-11-02 12:28:00,68.5,25.9,-100.00,NE,50,3.0,5.0,20,0.00,,,0.00,meteohub,2013-11-02 19:28:00,
2013-11-02 12:33:00,68.7,26.1,-100.00,NNE,28,4.0,5.0,20,0.00,,,0.00,meteohub,2013-11-02 19:33:00,
2013-11-02 12:38:00,69.1,26.2,-100.00,NNE,28,2.0,5.0,20,0.00,,,0.00,meteohub,2013-11-02 19:38:00,
2013-11-02 12:43:00,69.3,26.4,-100.00,NNE,30,2.0,6.0,20,0.00,,,0.00,meteohub,2013-11-02 19:43:00,
2013-11-02 12:48:00,69.4,26.6,-100.00,NE,47,2.0,6.0,20,0.00,,,0.00,meteohub,2013-11-02 19:48:00,
2013-11-02 12:53:00,69.4,26.6,-100.00,NE,47,1.0,4.0,20,0.00,,,0.00,meteohub,2013-11-02 19:53:00,
2013-11-02 12:58:00,69.8,25.7,-100.00,ENE,69,2.0,4.0,19,0.00,,,0.00,meteohub,2013-11-02 19:58:00,
2013-11-02 13:03:00,70.2,27.1,-100.00,ENE,73,2.0,4.0,20,0.00,,,0.00,meteohub,2013-11-02 20:03:00,
2013-11-02 13:08:00,70.3,26.1,-100.00,ENE,76,0.0,4.0,19,0.00,,,0.00,meteohub,2013-11-02 20:08:00,
2013-11-02 13:13:00,70.5,27.5,-100.00,SW,221,0.0,4.0,20,0.00,,,0.00,meteohub,2013-11-02 20:13:00,
2013-11-02 13:18:00,70.7,26.4,-100.00,West,280,2.0,4.0,19,0.00,,,0.00,meteohub,2013-11-02 20:18:00,
2013-11-02 13:23:00,70.9,26.6,-100.00,NW,315,3.0,4.0,19,0.00,,,0.00,meteohub,2013-11-02 20:23:00,
2013-11-02 13:28:00,71.1,26.8,-100.00,NW,324,1.0,4.0,19,0.00,,,0.00,meteohub,2013-11-02 20:28:00,
2013-11-02 13:33:00,71.1,26.8,-100.00,NE,35,3.0,4.0,19,0.00,,,0.00,meteohub,2013-11-02 20:33:00,
2013-11-02 13:38:00,71.2,26.8,-100.00,NE,36,0.0,4.0,19,0.00,,,0.00,meteohub,2013-11-02 20:38:00,
2013-11-02 13:43:00,71.4,27.0,-100.00,NNE,32,2.0,4.0,19,0.00,,,0.00,meteohub,2013-11-02 20:43:00,
2013-11-02 13:48:00,71.8,27.3,-100.00,NE,40,0.0,4.0,19,0.00,,,0.00,meteohub,2013-11-02 20:48:00,
2013-11-02 13:53:00,72.0,26.1,-100.00,NE,39,3.0,4.0,18,0.00,,,0.00,meteohub,2013-11-02 20:53:00,
2013-11-02 13:58:00,72.1,26.2,-100.00,NE,44,1.0,4.0,18,0.00,,,0.00,meteohub,2013-11-02 20:58:00,
2013-11-02 14:03:00,72.3,26.4,-100.00,NNW,347,5.0,5.0,18,0.00,,,0.00,meteohub,2013-11-02 21:03:00,
2013-11-02 14:08:00,72.7,26.8,-100.00,NE,44,6.0,6.0,18,0.00,,,0.00,meteohub,2013-11-02 21:08:00,
2013-11-02 14:13:00,73.0,25.7,-100.00,NE,42,0.0,7.0,17,0.00,,,0.00,meteohub,2013-11-02 21:13:00,
2013-11-02 14:18:00,73.2,27.1,-100.00,NE,49,3.0,7.0,18,0.00,,,0.00,meteohub,2013-11-02 21:18:00,
2013-11-02 14:23:00,73.4,27.3,-100.00,ENE,72,8.0,8.0,18,0.00,,,0.00,meteohub,2013-11-02 21:23:00,
2013-11-02 14:28:00,73.4,25.9,-100.00,SE,125,2.0,8.0,17,0.00,,,0.00,meteohub,2013-11-02 21:28:00,
2013-11-02 14:33:00,73.6,26.1,-100.00,ESE,121,1.0,8.0,17,0.00,,,0.00,meteohub,2013-11-02 21:33:00,
2013-11-02 14:38:00,73.8,26.2,-100.00,East,91,2.0,8.0,17,0.00,,,0.00,meteohub,2013-11-02 21:38:00,
2013-11-02 14:43:00,73.8,26.2,-100.00,NNE,33,1.0,5.0,17,0.00,,,0.00,meteohub,2013-11-02 21:43:00,
2013-11-02 14:48:00,73.8,26.2,-100.00,ESE,113,3.0,5.0,17,0.00,,,0.00,meteohub,2013-11-02 21:48:00,
2013-11-02 14:53:00,73.9,26.4,-100.00,SE,134,3.0,5.0,17,0.00,,,0.00,meteohub,2013-11-02 21:53:00,
2013-11-02 14:58:00,74.1,26.6,-100.00,SSW,193,1.0,5.0,17,0.00,,,0.00,meteohub,2013-11-02 21:58:00,
2013-11-02 15:03:00,74.5,28.2,-100.00,SW,217,0.0,5.0,18,0.00,,,0.00,meteohub,2013-11-02 22:03:00,
2013-11-02 15:08:00,74.7,27.0,-100.00,SE,129,5.0,6.0,17,0.00,,,0.00,meteohub,2013-11-02 22:08:00,
2013-11-02 15:13:00,74.8,25.7,-100.00,SE,124,1.0,6.0,16,0.00,,,0.00,meteohub,2013-11-02 22:13:00,
2013-11-02 15:18:00,75.0,24.3,-100.00,ESE,112,2.0,9.0,15,0.00,,,0.00,meteohub,2013-11-02 22:18:00,
2013-11-02 15:23:00,75.2,24.4,-100.00,South,183,5.0,9.0,15,0.00,,,0.00,meteohub,2013-11-02 22:23:00,
2013-11-02 15:28:00,75.4,24.4,-100.00,South,180,1.0,7.0,15,0.00,,,0.00,meteohub,2013-11-02 22:28:00,
2013-11-02 15:33:00,75.4,24.4,-100.00,East,88,5.0,6.0,15,0.00,,,0.00,meteohub,2013-11-02 22:33:00,
2013-11-02 15:38:00,75.4,21.2,-100.00,ESE,109,9.0,9.0,13,0.00,,,0.00,meteohub,2013-11-02 22:38:00,
2013-11-02 15:43:00,75.7,23.2,-100.00,SSE,149,7.0,10.0,14,0.00,,,0.00,meteohub,2013-11-02 22:43:00,
2013-11-02 15:48:00,76.3,21.7,-100.00,SE,144,8.0,12.0,13,0.00,,,0.00,meteohub,2013-11-02 22:48:00,
2013-11-02 15:53:00,76.6,22.1,-100.00,SE,140,8.0,12.0,13,0.00,,,0.00,meteohub,2013-11-02 22:53:00,
2013-11-02 15:58:00,76.6,22.1,-100.00,SE,141,10.0,12.0,13,0.00,,,0.00,meteohub,2013-11-02 22:58:00,
2013-11-02 16:03:00,76.6,23.9,-100.00,SW,215,6.0,12.0,14,0.00,,,0.00,meteohub,2013-11-02 23:03:00,
2013-11-02 16:08:00,76.6,22.1,-100.00,South,190,6.0,12.0,13,0.00,,,0.00,meteohub,2013-11-02 23:08:00,
2013-11-02 16:13:00,76.6,22.1,-100.00,SSW,200,8.0,10.0,13,0.00,,,0.00,meteohub,2013-11-02 23:13:00,
2013-11-02 16:18:00,76.5,21.9,-100.00,SSW,209,4.0,9.0,13,0.00,,,0.00,meteohub,2013-11-02 23:18:00,
2013-11-02 16:23:00,76.5,21.9,-100.00,South,180,11.0,11.0,13,0.00,,,0.00,meteohub,2013-11-02 23:23:00,
2013-11-02 16:28:00,76.3,21.7,-100.00,SSW,200,7.0,10.0,13,0.00,,,0.00,meteohub,2013-11-02 23:28:00,
2013-11-02 16:33:00,75.9,21.6,-100.00,SSW,207,3.0,12.0,13,0.00,,,0.00,meteohub,2013-11-02 23:33:00,
2013-11-02 16:38:00,75.7,23.2,-100.00,SSW,207,7.0,13.0,14,0.00,,,0.00,meteohub,2013-11-02 23:38:00,
2013-11-02 16:43:00,75.7,23.2,-100.00,SSW,192,7.0,13.0,14,0.00,,,0.00,meteohub,2013-11-02 23:43:00,
2013-11-02 16:48:00,75.7,23.2,-100.00,South,186,6.0,13.0,14,0.00,,,0.00,meteohub,2013-11-02 23:48:00,
2013-11-02 16:53:00,75.6,23.0,-100.00,South,177,9.0,14.0,14,0.00,,,0.00,meteohub,2013-11-02 23:53:00,
2013-11-02 16:58:00,75.4,22.8,-100.00,SSW,196,7.0,14.0,14,0.00,,,0.00,meteohub,2013-11-02 23:58:00,
2013-11-02 17:03:00,75.0,22.6,-100.00,South,188,13.0,15.0,14,0.00,,,0.00,meteohub,2013-11-03 00:03:00,
2013-11-02 17:08:00,74.8,24.1,-100.00,SSW,211,12.0,15.0,15,0.00,,,0.00,meteohub,2013-11-03 00:08:00,
2013-11-02 17:13:00,74.7,23.9,-100.00,SSW,207,2.0,15.0,15,0.00,,,0.00,meteohub,2013-11-03 00:13:00,
2013-11-02 17:18:00,74.1,23.5,-100.00,SW,215,4.0,15.0,15,0.00,,,0.00,meteohub,2013-11-03 00:18:00,
2013-11-02 17:23:00,73.9,23.4,-100.00,South,189,8.0,13.0,15,0.00,,,0.00,meteohub,2013-11-03 00:23:00,
2013-11-02 17:28:00,73.6,23.0,-100.00,SW,218,11.0,13.0,15,0.00,,,0.00,meteohub,2013-11-03 00:28:00,
2013-11-02 17:33:00,73.0,24.3,-100.00,SW,216,6.0,17.0,16,0.00,,,0.00,meteohub,2013-11-03 00:33:00,
2013-11-02 17:38:00,72.7,23.9,-100.00,South,187,10.0,17.0,16,0.00,,,0.00,meteohub,2013-11-03 00:38:00,
2013-11-02 17:43:00,72.3,23.5,-100.00,South,186,7.0,17.0,16,0.00,,,0.00,meteohub,2013-11-03 00:43:00,
2013-11-02 17:48:00,72.0,23.4,-100.00,South,186,6.0,17.0,16,0.00,,,0.00,meteohub,2013-11-03 00:48:00,
2013-11-02 17:53:00,71.4,22.8,-100.00,SSW,211,7.0,14.0,16,0.00,,,0.00,meteohub,2013-11-03 00:53:00,
2013-11-02 17:58:00,71.2,24.3,-100.00,South,182,7.0,14.0,17,0.00,,,0.00,meteohub,2013-11-03 00:58:00,
2013-11-02 18:03:00,71.1,24.1,-100.00,SSW,206,13.0,13.0,17,0.00,,,0.00,meteohub,2013-11-03 01:03:00,
2013-11-02 18:08:00,70.5,23.5,-100.00,SSW,195,7.0,16.0,17,0.00,,,0.00,meteohub,2013-11-03 01:08:00,
2013-11-02 18:13:00,70.3,23.5,-100.00,South,180,8.0,16.0,17,0.00,,,0.00,meteohub,2013-11-03 01:13:00,
2013-11-02 18:18:00,70.2,23.4,-100.00,South,187,12.0,16.0,17,0.00,,,0.00,meteohub,2013-11-03 01:18:00,
2013-11-02 18:23:00,70.2,23.4,-100.00,SSW,205,15.0,16.0,17,0.00,,,0.00,meteohub,2013-11-03 01:23:00,
2013-11-02 18:28:00,70.2,24.6,-100.00,South,191,14.0,20.0,18,0.00,,,0.00,meteohub,2013-11-03 01:28:00,
2013-11-02 18:33:00,70.0,24.4,-100.00,SSW,196,15.0,20.0,18,0.00,,,0.00,meteohub,2013-11-03 01:33:00,
2013-11-02 18:38:00,69.8,24.4,-100.00,SSW,199,7.0,21.0,18,0.00,,,0.00,meteohub,2013-11-03 01:38:00,
2013-11-02 18:43:00,69.6,24.3,-100.00,SW,215,9.0,21.0,18,0.00,,,0.00,meteohub,2013-11-03 01:43:00,
2013-11-02 18:48:00,69.8,24.4,-100.00,SSW,211,8.0,21.0,18,0.00,,,0.00,meteohub,2013-11-03 01:48:00,
2013-11-02 18:53:00,69.6,24.3,-100.00,South,182,13.0,20.0,18,0.00,,,0.00,meteohub,2013-11-03 01:53:00,
2013-11-02 18:58:00,69.4,24.1,-100.00,SW,217,5.0,20.0,18,0.00,,,0.00,meteohub,2013-11-03 01:58:00,
2013-11-02 19:03:00,69.3,23.9,-100.00,SSW,192,12.0,20.0,18,0.00,,,0.00,meteohub,2013-11-03 02:03:00,
2013-11-02 19:08:00,69.1,25.2,-100.00,SW,221,7.0,18.0,19,0.00,,,0.00,meteohub,2013-11-03 02:08:00,
2013-11-02 19:13:00,69.1,25.2,-100.00,SSW,209,5.0,17.0,19,0.00,,,0.00,meteohub,2013-11-03 02:13:00,
2013-11-02 19:18:00,68.7,24.8,-100.00,SSW,198,9.0,19.0,19,0.00,,,0.00,meteohub,2013-11-03 02:18:00,
2013-11-02 19:23:00,68.5,24.6,-100.00,SSW,202,10.0,19.0,19,0.00,,,0.00,meteohub,2013-11-03 02:23:00,
2013-11-02 19:28:00,68.4,24.4,-100.00,SSW,199,7.0,18.0,19,0.00,,,0.00,meteohub,2013-11-03 02:28:00,
2013-11-02 19:33:00,68.4,24.4,-100.00,SSW,207,7.0,18.0,19,0.00,,,0.00,meteohub,2013-11-03 02:33:00,
2013-11-02 19:38:00,68.2,24.3,-100.00,South,181,9.0,18.0,19,0.00,,,0.00,meteohub,2013-11-03 02:38:00,
2013-11-02 19:43:00,68.2,24.3,-100.00,SSW,198,9.0,17.0,19,0.00,,,0.00,meteohub,2013-11-03 02:43:00,
2013-11-02 19:48:00,67.8,25.3,-100.00,SSW,208,7.0,16.0,20,0.00,,,0.00,meteohub,2013-11-03 02:48:00,
2013-11-02 19:53:00,67.6,25.2,-100.00,SSW,213,9.0,16.0,20,0.00,,,0.00,meteohub,2013-11-03 02:53:00,
2013-11-02 19:58:00,67.5,25.0,-100.00,SW,219,7.0,16.0,20,0.00,,,0.00,meteohub,2013-11-03 02:58:00,
2013-11-02 20:03:00,67.5,23.7,-100.00,SSW,200,10.0,15.0,19,0.00,,,0.00,meteohub,2013-11-03 03:03:00,
2013-11-02 20:08:00,67.3,24.8,-100.00,SW,215,11.0,18.0,20,0.00,,,0.00,meteohub,2013-11-03 03:08:00,
2013-11-02 20:13:00,66.9,24.6,-100.00,SSW,198,6.0,18.0,20,0.00,,,0.00,meteohub,2013-11-03 03:13:00,
2013-11-02 20:18:00,66.7,24.4,-100.00,SW,230,10.0,18.0,20,0.00,,,0.00,meteohub,2013-11-03 03:18:00,
2013-11-02 20:23:00,66.6,23.0,-100.00,SSW,209,8.0,16.0,19,0.00,,,0.00,meteohub,2013-11-03 03:23:00,
2013-11-02 20:28:00,66.4,25.3,-100.00,SW,236,7.0,18.0,21,0.00,,,0.00,meteohub,2013-11-03 03:28:00,
2013-11-02 20:33:00,66.2,23.9,-100.00,SSW,200,4.0,18.0,20,0.00,,,0.00,meteohub,2013-11-03 03:33:00,
2013-11-02 20:38:00,66.2,23.9,-100.00,SW,219,6.0,18.0,20,0.00,,,0.00,meteohub,2013-11-03 03:38:00,
2013-11-02 20:43:00,66.0,23.7,-100.00,SW,214,6.0,12.0,20,0.00,,,0.00,meteohub,2013-11-03 03:43:00,
2013-11-02 20:48:00,65.8,23.7,-100.00,WSW,237,10.0,14.0,20,0.00,,,0.00,meteohub,2013-11-03 03:48:00,
2013-11-02 20:53:00,65.8,23.7,-100.00,SW,232,10.0,14.0,20,0.00,,,0.00,meteohub,2013-11-03 03:53:00,
2013-11-02 20:58:00,65.7,22.3,-100.00,SW,222,9.0,17.0,19,0.00,,,0.00,meteohub,2013-11-03 03:58:00,
2013-11-02 21:01:00,65.7,22.3,-100.00,SW,215,7.0,17.0,19,0.00,,,0.00,meteohub,2013-11-03 04:01:00,
2013-11-02 21:02:00,65.7,22.3,-100.00,SSW,211,4.0,17.0,19,0.00,,,0.00,meteohub,2013-11-03 04:02:00,
2013-11-02 21:07:00,65.7,22.3,-100.00,SW,217,3.0,17.0,19,0.00,,,0.00,meteohub,2013-11-03 04:07:00,
2013-11-02 21:12:00,65.7,22.3,-100.00,SW,218,6.0,14.0,19,0.00,,,0.00,meteohub,2013-11-03 04:12:00,
2013-11-02 21:17:00,65.7,23.5,-100.00,SSW,213,6.0,13.0,20,0.00,,,0.00,meteohub,2013-11-03 04:17:00,
2013-11-02 21:22:00,65.5,23.4,-100.00,SW,218,7.0,13.0,20,0.00,,,0.00,meteohub,2013-11-03 04:22:00,
2013-11-02 21:27:00,65.3,23.2,-100.00,WSW,248,5.0,14.0,20,0.00,,,0.00,meteohub,2013-11-03 04:27:00,
2013-11-02 21:32:00,65.1,23.0,-100.00,SSW,212,3.0,14.0,20,0.00,,,0.00,meteohub,2013-11-03 04:32:00,
2013-11-02 21:37:00,65.1,23.0,-100.00,SSW,205,8.0,13.0,20,0.00,,,0.00,meteohub,2013-11-03 04:37:00,
2013-11-02 21:42:00,65.1,23.0,-100.00,SW,234,6.0,18.0,20,0.00,,,0.00,meteohub,2013-11-03 04:42:00,
2013-11-02 21:47:00,64.9,24.1,-100.00,WNW,290,5.0,18.0,21,0.00,,,0.00,meteohub,2013-11-03 04:47:00,
2013-11-02 21:52:00,64.8,22.8,-100.00,WNW,289,4.0,18.0,20,0.00,,,0.00,meteohub,2013-11-03 04:52:00,
2013-11-02 21:57:00,64.4,22.5,-100.00,West,259,4.0,13.0,20,0.00,,,0.00,meteohub,2013-11-03 04:57:00,
2013-11-02 22:02:00,64.6,23.7,-100.00,West,268,12.0,12.0,21,0.00,,,0.00,meteohub,2013-11-03 05:02:00,
2013-11-02 22:07:00,64.9,24.1,-100.00,WNW,293,7.0,13.0,21,0.00,,,0.00,meteohub,2013-11-03 05:07:00,
2013-11-02 22:12:00,64.8,25.0,-100.00,West,281,6.0,13.0,22,0.00,,,0.00,meteohub,2013-11-03 05:12:00,
2013-11-02 22:17:00,64.6,24.8,-100.00,West,273,6.0,13.0,22,0.00,,,0.00,meteohub,2013-11-03 05:17:00,
2013-11-02 22:22:00,64.2,25.7,-100.00,West,271,2.0,11.0,23,0.00,,,0.00,meteohub,2013-11-03 05:22:00,
2013-11-02 22:27:00,64.0,25.5,-100.00,SW,235,4.0,9.0,23,0.00,,,0.00,meteohub,2013-11-03 05:27:00,
2013-11-02 22:32:00,64.0,25.5,-100.00,SW,215,11.0,11.0,23,0.00,,,0.00,meteohub,2013-11-03 05:32:00,
2013-11-02 22:37:00,63.9,25.3,-100.00,WSW,245,9.0,12.0,23,0.00,,,0.00,meteohub,2013-11-03 05:37:00,
2013-11-02 22:42:00,63.7,25.2,-100.00,SW,234,7.0,17.0,23,0.00,,,0.00,meteohub,2013-11-03 05:42:00,
2013-11-02 22:47:00,63.7,26.2,-100.00,WSW,242,7.0,17.0,24,0.00,,,0.00,meteohub,2013-11-03 05:47:00,
2013-11-02 22:52:00,63.7,27.1,-100.00,SW,218,3.0,17.0,25,0.00,,,0.00,meteohub,2013-11-03 05:52:00,
2013-11-02 22:57:00,63.5,26.1,-100.00,SW,236,8.0,17.0,24,0.00,,,0.00,meteohub,2013-11-03 05:57:00,
2013-11-02 23:02:00,63.7,26.2,-100.00,SSW,198,5.0,16.0,24,0.00,,,0.00,meteohub,2013-11-03 06:02:00,
2013-11-02 23:07:00,63.9,26.4,-100.00,SSW,207,8.0,17.0,24,0.00,,,0.00,meteohub,2013-11-03 06:07:00,
2013-11-02 23:12:00,63.9,26.4,-100.00,SW,216,7.0,17.0,24,0.00,,,0.00,meteohub,2013-11-03 06:12:00,
2013-11-02 23:17:00,63.7,27.1,-100.00,SW,228,13.0,17.0,25,0.00,,,0.00,meteohub,2013-11-03 06:17:00,
2013-11-02 23:22:00,63.7,27.1,-100.00,SW,230,9.0,18.0,25,0.00,,,0.00,meteohub,2013-11-03 06:22:00,
2013-11-02 23:27:00,63.7,27.1,-100.00,SSW,205,9.0,18.0,25,0.00,,,0.00,meteohub,2013-11-03 06:27:00,
2013-11-02 23:32:00,63.7,26.2,-100.00,South,191,13.0,18.0,24,0.00,,,0.00,meteohub,2013-11-03 06:32:00,
2013-11-02 23:37:00,63.9,26.4,-100.00,SW,234,6.0,16.0,24,0.00,,,0.00,meteohub,2013-11-03 06:37:00,
2013-11-02 23:42:00,64.0,26.6,-100.00,SSW,205,7.0,17.0,24,0.00,,,0.00,meteohub,2013-11-03 06:42:00,
2013-11-02 23:47:00,64.0,25.5,-100.00,SSW,192,7.0,17.0,23,0.00,,,0.00,meteohub,2013-11-03 06:47:00,
2013-11-02 23:52:00,63.9,25.3,-100.00,SW,217,3.0,15.0,23,0.00,,,0.00,meteohub,2013-11-03 06:52:00,
2013-11-02 23:57:00,63.9,24.3,-100.00,West,263,9.0,13.0,22,0.00,,,0.00,meteohub,2013-11-03 06:57:00,